User: anonymous   Login
Location: Unspecified
(0.0000°N, 0.0000°E)
Time: 07:44:23
(UTC+00:00)
Language:

APRIZESAT 7 - Orbit

View from above orbital plane
View from above orbital plane
View from above satellite
View from above satellite

Ground track
Ground track

The orbit data is extracted from the following two-line orbital elements,

1 39416U 13066A   23088.89425443  .00002750  00000-0  32132-3 0  9997
2 39416  97.6114  60.4607 0041241 135.6558 224.7974 14.85302181506392
Epoch (UTC): 29 March 2023 21:27:43
Eccentricity: 0.0041241
inclination: 97.6114°
perigee height: 584 km
apogee height: 641 km
right ascension of ascending node: 60.4607°
argument of perigee: 135.6558°
revolutions per day: 14.85302181
mean anomaly at epoch: 224.7974°
orbit number at epoch: 50639

The dashed part of the orbit path shows where the satellite is in the earth's shadow,  

DLR